Location: Stara Lesna
(49.1528°N, 20.2911°E)
Time: 11:58:51
(UTC+02:00)

Timation 2 Rocket - Pass Details

Date: 21 September 2019
Orbit: 908 x 1074 km, 70.0° (Epoch: 15 October)

Event Time Altitude Azimuth Distance (km) Brightness Sun altitude
Rises 04:11:50 0° 328° (NNW) 3,596 6.9 -21.4°
Reaches altitude 10° 04:14:23 10° 327° (NNW) 2,633 6.2 -21.0°
Maximum altitude 04:20:25 74° 244° (WSW) 951 3.7 -20.1°
Drops below altitude 10° 04:26:21 10° 160° (SSE) 2,586 6.2 -19.3°
Sets 04:28:50 0° 159° (SSE) 3,528 6.9 -18.9°
